Content
SEND FEEDBACK

Daily
Averages
Monthly
Summary
United States of America

PASO ROBLES, CALIFORNIA


Home > North America > United States > California
Elevation: 837 feet     Latitude: 35 40N     Longitude: 120 38W

WEATHER
 
SELECT A DAY
Number of Records: 188,832;   Date Range: 1/1/95 - 10/24/14
 
SHARE

PRINT THIS DATA

[ ← Previous Day ]
WEATHER ALMANAC - JANUARY 31, 2013
[ Next Day → ]
[ °C ]   °F
Weather ElementAverageHighLow
Temperature46.9 °F70 °F (2:53 pm)32 °F (6:53 am)
Dewpoint37.5 °F43 °F (1:53 pm)30.9 °F (4:53 am)
Humidity73.8 %100 % (8:06 am)36 % (3:53 pm)
Barometer30.23 in30.29 in (1:53 am)30.15 in (2:53 pm)
Wind Speed1.8 mph9.2 mph (4:53 pm)
Weather ElementAverage
Visibility8.2 mi
Wind DirectionNNE (30.8 °)

Weather ElementTotal
Precipitation---
Heating Degree Days14 (Base 65)
Growing Degree Days1 (Base 50)
Averaged from 24 records on January 31, 2013
WEATHER CONDITIONS BREAKOUT
WIND DIRECTION BREAKOUT
WEATHER BY HOUR - JANUARY 31, 2013
[ °C ]   °F
Local TimeTemperatureDewpointHumidityBarometerVisibilityWind DirectionWind SpeedGust SpeedPrecipitationEventsConditions
1:53 AM37.9 °F35.1 °F89 %30.29 in8.0 miCalmClear
2:53 AM37.0 °F34.0 °F89 %30.27 in8.0 miCalmClear
3:53 AM34.0 °F32.0 °F92 %30.26 in6.0 miCalmClear
4:53 AM33.1 °F30.9 °F92 %30.26 in6.0 miCalmClear
5:53 AM33.1 °F30.9 °F92 %30.27 in5.0 miCalmClear
6:53 AM32.0 °F30.9 °F96 %30.27 in7.0 miCalmClear
7:51 AM33.8 °F32.0 °F93 %30.27 in2.5 miCalmClear
7:53 AM33.1 °F32.0 °F96 %30.29 in2.5 miCalmClear
8:06 AM35.6 °F35.6 °F100 %30.28 in4.0 miCalmClear
8:53 AM39.0 °F37.0 °F93 %30.29 in9.0 miCalmClear
9:53 AM44.1 °F39.0 °F82 %30.29 in10.0 miCalmClear
10:53 AM50.0 °F39.9 °F68 %30.28 in10.0 miCalmClear
11:53 AM55.9 °F41.0 °F57 %30.25 in10.0 miCalmClear
12:53 PM62.1 °F42.1 °F48 %30.21 in10.0 miCalmClear
1:53 PM66.0 °F43.0 °F43 %30.18 in10.0 miCalmClear
2:53 PM70.0 °F43.0 °F38 %30.15 in10.0 miCalmClear
3:53 PM70.0 °F42.1 °F36 %30.15 in10.0 miCalmClear
4:53 PM64.9 °F43.0 °F45 %30.15 in10.0 miEast (90°)9.2 mphClear
5:53 PM59.0 °F42.1 °F53 %30.16 in10.0 miEast (90°)9.2 mphClear
6:53 PM54.0 °F39.9 °F59 %30.18 in10.0 miESE (120°)5.8 mphClear
7:53 PM52.0 °F39.9 °F63 %30.19 in10.0 miSE (140°)5.8 mphClear
9:53 PM45.0 °F39.0 °F80 %30.19 in10.0 miSE (140°)6.9 mphClear
10:53 PM42.1 °F37.0 °F82 %30.20 in10.0 miESE (120°)3.5 mphClear
11:53 PM42.1 °F37.9 °F85 %30.19 in9.0 miNE (40°)3.5 mphClear
Hourly data recorded from KPRB, located miles away from Paso Robles, California







STORIES FROM OUR PARTNERS